sat.trackr.live / text

‹ back to catalog

TJS-15

NORAD 63157 · 2025-045A

PAYLOAD ACTIVE UNKNOWN

§ Identity

Operator
Country
PRC
Launch date
2025-03-09
Launch site
XICLF
Launch vehicle
Mass (kg)
RCS (m²)

Purposes: comms

External: N2YO · Heavens-Above · Gunter

§ Orbital elements

Epoch: 2026-09-19T19:17:14.027712Z

Period
1,436.10 min
Inclination
0.4460°
Eccentricity
0.0000134
Mean motion
1.00271651 rev/d
Perigee alt
35,786.1 km
Apogee alt
35,787.2 km
Semi-major
42,164.8 km
B*
0.0000e+0
RAAN
84.6954°
Arg perigee
238.3192°
Mean anomaly
53.7427°
Rev number
570

§ Raw data

TJS-151 63157U 25045A   26262.80363458 -.00000222  00000+0  00000+0 0  99982 63157   0.4460  84.6954 0000134 238.3192  53.7427  1.00271651  5703

JSON: /api/v1/satellites/63157 · /tle

For live sub-satellite position, see the globe view (requires WebGL).

§ Visibility from observer

Set your observer location to see the next 7 days of passes ≥ 10°. The values pass through the URL so the page stays shareable.

No JS? Fill the form by hand. The geolocation button needs JavaScript.